When you browse on this site, cookies collect data to enhance your experience and personalize the content and advertising you see.
Visit our Privacy Policy to learn more. By continuing to use the site, you agree to this use of cookies and data.
  • In Hungary
  • List of Countries
  • For 7 days
  • Water Temperature
  • Satellite Maps
  • Weather Map
  • News
  • Weather Widgets
  • user-avatar
    Login

    Hourly Weather Egorkino

    Today, 21 November, Wednesday

    Time Temperature Precipitation Wind Pressure Humidity
    00:00 -7°C° 0 mm 4 mps 743 mmHg 82%
    01:00 -7°C° 0 mm 4 mps 743 mmHg 81%
    02:00 -7°C° 0 mm 5 mps 742 mmHg 80%
    03:00 -7°C° 0 mm 5 mps 742 mmHg 79%
    04:00 -7°C° 0.1 mm 5 mps 741 mmHg 80%
    05:00 -6°C° 0.1 mm 5 mps 741 mmHg 81%
    06:00 -6°C° 0.1 mm 5 mps 740 mmHg 82%
    07:00 -6°C° 0.1 mm 5 mps 740 mmHg 83%
    08:00 -5°C° 0.1 mm 5 mps 739 mmHg 83%
    09:00 -5°C° 0.1 mm 6 mps 739 mmHg 83%
    10:00 -5°C° 0.2 mm 6 mps 739 mmHg 82%
    11:00 -4°C° 0.2 mm 6 mps 739 mmHg 80%
    12:00 -4°C° 0.2 mm 7 mps 739 mmHg 78%
    13:00 -4°C° 0 mm 6 mps 739 mmHg 75%
    14:00 -5°C° 0 mm 6 mps 739 mmHg 71%
    15:00 -6°C° 0 mm 6 mps 739 mmHg 68%
    16:00 -6°C° 0 mm 6 mps 740 mmHg 69%
    17:00 -8°C° 0 mm 6 mps 740 mmHg 69%
    18:00 -9°C° 0 mm 6 mps 741 mmHg 70%
    19:00 -8°C° 0 mm 5 mps 741 mmHg 72%
    20:00 -8°C° 0 mm 5 mps 741 mmHg 75%
    21:00 -8°C° 0 mm 5 mps 741 mmHg 77%
    22:00 -8°C° 0 mm 5 mps 740 mmHg 79%
    23:00 -10°C° 0 mm 5 mps 740 mmHg 81%

    Tomorrow, 22 November, Thursday

    Time Temperature Precipitation Wind Pressure Humidity
    00:00 -9°C° 0 mm 4 mps 740 mmHg 83%
    01:00 -9°C° 0 mm 4 mps 740 mmHg 85%
    02:00 -9°C° 0 mm 4 mps 739 mmHg 87%
    03:00 -8°C° 0 mm 4 mps 739 mmHg 88%
    04:00 -8°C° 0.1 mm 4 mps 739 mmHg 88%
    05:00 -8°C° 0.1 mm 4 mps 738 mmHg 87%
    06:00 -7°C° 0.1 mm 4 mps 738 mmHg 87%
    07:00 -7°C° 0.2 mm 5 mps 737 mmHg 86%
    08:00 -6°C° 0.2 mm 5 mps 737 mmHg 85%
    09:00 -6°C° 0.2 mm 5 mps 736 mmHg 84%
    10:00 -6°C° 0.1 mm 5 mps 736 mmHg 83%
    11:00 -6°C° 0.1 mm 5 mps 735 mmHg 81%
    12:00 -5°C° 0.1 mm 5 mps 735 mmHg 79%
    13:00 -5°C° 0.3 mm 5 mps 734 mmHg 82%
    14:00 -6°C° 0.3 mm 6 mps 733 mmHg 84%
    15:00 -6°C° 0.3 mm 6 mps 733 mmHg 86%
    16:00 -6°C° 0.3 mm 6 mps 732 mmHg 85%
    17:00 -6°C° 0.3 mm 6 mps 731 mmHg 85%
    18:00 -6°C° 0.3 mm 6 mps 731 mmHg 84%
    19:00 -6°C° 0.4 mm 5 mps 730 mmHg 87%
    20:00 -6°C° 0.4 mm 5 mps 729 mmHg 89%
    21:00 -5°C° 0.4 mm 4 mps 728 mmHg 92%
    22:00 -6°C° 0.9 mm 5 mps 728 mmHg 90%
    23:00 -6°C° 0.9 mm 6 mps 728 mmHg 88%

    Day after tomorrow, 23 November, Friday

    Time Temperature Precipitation Wind Pressure Humidity
    00:00 -7°C° 0.9 mm 7 mps 728 mmHg 86%
    01:00 -8°C° 0.6 mm 8 mps 728 mmHg 83%
    02:00 -10°C° 0.6 mm 9 mps 729 mmHg 81%
    03:00 -12°C° 0.6 mm 10 mps 729 mmHg 78%
    04:00 -11°C° 0.1 mm 9 mps 730 mmHg 78%
    05:00 -12°C° 0.1 mm 8 mps 731 mmHg 78%
    06:00 -12°C° 0.1 mm 7 mps 732 mmHg 79%
    07:00 -12°C° 0 mm 8 mps 733 mmHg 78%
    08:00 -13°C° 0 mm 8 mps 735 mmHg 77%
    09:00 -13°C° 0 mm 8 mps 736 mmHg 76%
    10:00 -13°C° 0 mm 8 mps 737 mmHg 75%
    11:00 -13°C° 0 mm 8 mps 738 mmHg 75%
    12:00 -13°C° 0 mm 8 mps 739 mmHg 74%
    13:00 -13°C° 0 mm 8 mps 740 mmHg 76%
    14:00 -13°C° 0 mm 7 mps 741 mmHg 78%
    15:00 -14°C° 0 mm 6 mps 742 mmHg 80%
    16:00 -13°C° 0 mm 5 mps 742 mmHg 82%
    17:00 -13°C° 0 mm 5 mps 743 mmHg 85%
    18:00 -14°C° 0 mm 4 mps 744 mmHg 87%
    19:00 -14°C° 0 mm 4 mps 744 mmHg 87%
    20:00 -14°C° 0 mm 4 mps 744 mmHg 87%
    21:00 -14°C° 0 mm 4 mps 744 mmHg 88%
    22:00 -12°C° 0 mm 4 mps 744 mmHg 88%
    23:00 -12°C° 0 mm 4 mps 744 mmHg 88%

    24 November, Saturday

    Time Temperature Precipitation Wind Pressure Humidity
    00:00 -11°C° 0 mm 4 mps 744 mmHg 87%
    01:00 -11°C° 0.1 mm 4 mps 744 mmHg 87%
    02:00 -11°C° 0.1 mm 4 mps 744 mmHg 86%
    03:00 -10°C° 0.1 mm 4 mps 744 mmHg 86%
    04:00 -10°C° 0 mm 4 mps 744 mmHg 87%
    05:00 -11°C° 0 mm 4 mps 744 mmHg 88%
    06:00 -12°C° 0 mm 5 mps 743 mmHg 89%
    07:00 -11°C° 0 mm 5 mps 743 mmHg 88%
    08:00 -11°C° 0 mm 5 mps 743 mmHg 87%
    09:00 -10°C° 0 mm 5 mps 743 mmHg 87%
    10:00 -10°C° 0 mm 6 mps 743 mmHg 86%
    11:00 -9°C° 0 mm 6 mps 742 mmHg 85%
    12:00 -9°C° 0 mm 6 mps 742 mmHg 85%
    13:00 -9°C° 0.1 mm 6 mps 742 mmHg 84%
    14:00 -8°C° 0.1 mm 6 mps 742 mmHg 84%
    15:00 -7°C° 0.1 mm 5 mps 742 mmHg 83%
    16:00 -8°C° 0.1 mm 6 mps 741 mmHg 84%
    17:00 -8°C° 0.1 mm 6 mps 741 mmHg 84%
    18:00 -6°C° 0.1 mm 6 mps 741 mmHg 85%
    19:00 -6°C° 0 mm 6 mps 741 mmHg 85%
    20:00 -6°C° 0 mm 6 mps 741 mmHg 85%
    21:00 -6°C° 0 mm 6 mps 741 mmHg 85%
    22:00 -6°C° 0 mm 5 mps 740 mmHg 85%
    23:00 -7°C° 0 mm 5 mps 740 mmHg 85%

    25 November, Sunday

    Time Temperature Precipitation Wind Pressure Humidity
    00:00 -7°C° 0 mm 5 mps 740 mmHg 85%
    01:00 -7°C° 0 mm 5 mps 740 mmHg 85%
    02:00 -7°C° 0 mm 5 mps 740 mmHg 85%
    03:00 -6°C° 0 mm 5 mps 740 mmHg 85%
    04:00 -6°C° 0.1 mm 5 mps 740 mmHg 85%
    05:00 -6°C° 0.1 mm 5 mps 739 mmHg 86%
    06:00 -6°C° 0.1 mm 5 mps 739 mmHg 86%
    07:00 -6°C° 0.1 mm 5 mps 739 mmHg 86%
    08:00 -6°C° 0.1 mm 5 mps 739 mmHg 86%
    09:00 -6°C° 0.1 mm 5 mps 739 mmHg 86%
    10:00 -6°C° 0 mm 5 mps 739 mmHg 85%
    11:00 -6°C° 0 mm 5 mps 739 mmHg 84%
    12:00 -5°C° 0 mm 5 mps 739 mmHg 83%
    13:00 -5°C° 0 mm 5 mps 740 mmHg 84%
    14:00 -6°C° 0 mm 5 mps 740 mmHg 84%
    15:00 -5°C° 0 mm 4 mps 740 mmHg 85%
    16:00 -5°C° 0 mm 4 mps 741 mmHg 87%
    17:00 -6°C° 0 mm 3 mps 741 mmHg 89%
    18:00 -7°C° 0 mm 3 mps 742 mmHg 91%
    19:00 -8°C° 0 mm 3 mps 742 mmHg 92%
    20:00 -8°C° 0 mm 3 mps 742 mmHg 93%
    21:00 -8°C° 0 mm 2 mps 742 mmHg 94%
    22:00 -8°C° 0 mm 2 mps 743 mmHg 94%
    23:00 -9°C° 0 mm 2 mps 743 mmHg 95%

    26 November, Monday

    Time Temperature Precipitation Wind Pressure Humidity
    00:00 -9°C° 0 mm 2 mps 743 mmHg 95%
    01:00 -9°C° 0 mm 2 mps 743 mmHg 95%
    02:00 -9°C° 0 mm 2 mps 743 mmHg 95%
    03:00 -9°C° 0 mm 2 mps 743 mmHg 95%
    04:00 -9°C° 0 mm 2 mps 743 mmHg 96%
    05:00 -9°C° 0 mm 2 mps 743 mmHg 96%
    06:00 -9°C° 0 mm 1 mps 743 mmHg 96%
    07:00 -8°C° 0 mm 1 mps 743 mmHg 96%
    08:00 -8°C° 0 mm 1 mps 743 mmHg 96%
    09:00 -8°C° 0 mm 1 mps 743 mmHg 95%
    10:00 -7°C° 0 mm 1 mps 743 mmHg 94%
    11:00 -6°C° 0 mm 1 mps 742 mmHg 92%
    12:00 -4°C° 0 mm 1 mps 742 mmHg 90%
    13:00 -6°C° 0 mm 1 mps 741 mmHg 91%
    14:00 -7°C° 0 mm 2 mps 741 mmHg 92%
    15:00 -7°C° 0 mm 2 mps 740 mmHg 93%
    16:00 -7°C° 0.1 mm 2 mps 740 mmHg 94%
    17:00 -7°C° 0.1 mm 2 mps 740 mmHg 95%
    18:00 -7°C° 0.1 mm 2 mps 739 mmHg 95%
    19:00 -7°C° 0.2 mm 2 mps 739 mmHg 95%
    20:00 -7°C° 0.2 mm 2 mps 738 mmHg 96%
    21:00 -7°C° 0.2 mm 2 mps 738 mmHg 96%
    22:00 -7°C° 0.3 mm 2 mps 737 mmHg 96%
    23:00 -7°C° 0.3 mm 2 mps 737 mmHg 96%
    Show more